Location: Unspecified
(58.9933°N, 5.6375°E)
Time: 23:53:37
(UTC+02:00)

Cosmos 2058 - Visible Passes

Search period start: 16 April 2014 00:00
Search period end: 26 April 2014 00:00
Orbit: 572 x 595 km, 82.5° (Epoch: 15 April)

Date Brightness Start Highest point End Pass type
(mag) Time Alt. Az. Time Alt. Az. Time Alt. Az.
22 Apr 6.3 04:42:12 10° E 04:43:22 11° ENE 04:44:33 10° ENE visible
23 Apr 5.9 04:47:08 10° ESE 04:49:22 14° E 04:51:36 10° NE visible
24 Apr 5.8 04:52:31 10° SE 04:55:23 18° E 04:58:15 10° NE visible
25 Apr 5.5 04:58:06 10° SE 05:01:25 22° E 05:04:44 10° NE visible
